Weather History for Oshkosh, WI

Change the Weather History Date:

Sunday, May 11, 2014

  Actual Average Record
Temperature  
Mean Temperature 64 °F -  
Max Temperature 78 °F 68 °F 83 °F (1985)
Min Temperature 51 °F 45 °F 28 °F (1963)
Growing Degree Days 14 (Base 50)    
Moisture  
Dew Point 55 °F    
Average Humidity 75    
Maximum Humidity 93    
Minimum Humidity 50    
Precipitation  
Precipitation 0.62 in - - ()
Sea Level Pressure  
Sea Level Pressure 29.90 in    
Wind  
Wind Speed 7 mph (SSE)    
Max Wind Speed 17 mph    
Max Gust Speed 25 mph    
Visibility 8 miles    
Events Rain , Thunderstorm    
Averages and records for this station are not official NWS values.
T = Trace of Precipitation, MM = Missing Value Source: NWS Daily Summary

Daily Weather History Graph

Daily Weather History Graph

Search for Another Location

Airport:

Trip Planner

Search our weather history database for the weather conditions in past years. The results will help you decide how hot, cold, wet, or windy it might be!

Date:

Astronomy

May. 11, 2014 Rise Set
Actual Time 5:32 AM CDT 8:09 PM CDT
Civil Twilight 4:59 AM CDT 8:42 PM CDT
Nautical Twilight 4:18 AM CDT 9:23 PM CDT
Astronomical Twilight 3:31 AM CDT 10:10 PM CDT
Moon 4:58 PM CDT (5/11) 3:45 AM CDT (5/11)
Length of Visible Light 15h 42m
Length of Day
14h 36m
Waxing Gibbous, 89% of the Moon is Illuminated
May 11
Waxing Gibbous
May 14
Full
May 21
Last Quarter
May 28
New
Jun 5
First Quarter

Hourly Weather History & Observations

Time (CDT) Temp. Dew Point Humidity Pressure Visibility Wind Dir Wind Speed Gust Speed Precip Events Conditions
12:53 AM 55.0 °F 44.1 °F 67% 29.92 in 10.0 mi South 8.1 mph - N/A   Mostly Cloudy
1:53 AM 51.1 °F 45.0 °F 80% 29.92 in 10.0 mi South 5.8 mph - N/A   Scattered Clouds
2:53 AM 55.0 °F 44.1 °F 67% 29.91 in 10.0 mi South 6.9 mph - N/A   Mostly Cloudy
3:53 AM 55.9 °F 42.1 °F 60% 29.91 in 10.0 mi SSE 6.9 mph - N/A   Clear
4:53 AM 52.0 °F 43.0 °F 71% 29.90 in 10.0 mi South 5.8 mph - N/A   Partly Cloudy
5:53 AM 54.0 °F 43.0 °F 66% 29.91 in 10.0 mi South 9.2 mph - N/A   Scattered Clouds
6:53 AM 55.9 °F 44.1 °F 64% 29.90 in 10.0 mi South 5.8 mph - N/A   Clear
7:53 AM 61.0 °F 46.0 °F 58% 29.89 in 10.0 mi South 8.1 mph - N/A   Clear
8:53 AM 66.0 °F 51.1 °F 59% 29.90 in 10.0 mi South 12.7 mph - N/A   Clear
9:53 AM 69.1 °F 54.0 °F 58% 29.90 in 10.0 mi South 10.4 mph - N/A   Clear
10:53 AM 71.1 °F 55.9 °F 59% 29.90 in 10.0 mi SW 9.2 mph - N/A   Clear
11:53 AM 73.0 °F 55.9 °F 55% 29.90 in 10.0 mi WSW 5.8 mph - N/A   Clear
1:53 PM 77.0 °F 57.0 °F 50% 29.89 in 10.0 mi SSE 3.5 mph - N/A   Clear
2:53 PM 78.1 °F 59.0 °F 52% 29.87 in 10.0 mi South 5.8 mph - N/A   Partly Cloudy
3:53 PM 73.9 °F 59.0 °F 59% 29.85 in 10.0 mi ENE 8.1 mph - N/A   Partly Cloudy
4:32 PM 72.0 °F 59.0 °F 64% 29.87 in 10.0 mi ENE 4.6 mph - 0.00 in Rain , Thunderstorm Light Rain
4:41 PM 70.0 °F 60.1 °F 71% 29.86 in 10.0 mi ENE 4.6 mph - 0.00 in Thunderstorm Thunderstorm
4:53 PM 68.0 °F 61.0 °F 78% 29.88 in 8.0 mi West 17.3 mph 23.0 mph 0.01 in Rain , Thunderstorm Thunderstorms and Rain
4:58 PM 66.0 °F 61.0 °F 84% 29.91 in 1.5 mi West 13.8 mph 25.3 mph 0.21 in Rain , Thunderstorm Heavy Thunderstorms and Rain
5:04 PM 64.0 °F 60.1 °F 87% 29.91 in 0.8 mi Variable 3.5 mph 25.3 mph 0.41 in Rain , Thunderstorm Heavy Thunderstorms and Rain
5:17 PM 64.0 °F 61.0 °F 90% 29.91 in 1.0 mi West 4.6 mph - 0.54 in Rain , Thunderstorm Heavy Thunderstorms and Rain
5:31 PM 64.0 °F 62.1 °F 93% 29.93 in 3.0 mi Calm Calm - 0.58 in Rain , Thunderstorm Light Thunderstorms and Rain
5:38 PM 64.0 °F 62.1 °F 93% 29.92 in 5.0 mi Calm Calm - 0.59 in Rain , Thunderstorm Light Rain
5:53 PM 64.0 °F 62.1 °F 93% 29.90 in 4.0 mi North 4.6 mph - 0.61 in Rain Light Rain
6:38 PM 64.0 °F 61.0 °F 90% 29.90 in 10.0 mi ENE 8.1 mph - 0.00 in   Overcast
6:53 PM 63.0 °F 60.1 °F 90% 29.90 in 10.0 mi ESE 10.4 mph - 0.00 in   Overcast
7:11 PM 63.0 °F 60.1 °F 90% 29.91 in 10.0 mi ESE 6.9 mph - N/A   Overcast
7:53 PM 62.1 °F 60.1 °F 93% 29.88 in 10.0 mi East 6.9 mph - N/A   Mostly Cloudy
8:53 PM 62.1 °F 60.1 °F 93% 29.89 in 10.0 mi ESE 8.1 mph - N/A   Overcast
9:53 PM 63.0 °F 59.0 °F 87% 29.88 in 10.0 mi ESE 11.5 mph - N/A   Overcast
11:53 PM 62.1 °F 59.0 °F 90% 29.87 in 10.0 mi ESE 8.1 mph - N/A   Overcast